[[{"header":{"parameterUnit":"m.s-1","parameterCategory":1,"la1":30.2991,"la2":30.254,"lo1":-89.0895,"lo2":-89.0444,"dy":0.0017,"dx":0.0017,"nx":28,"ny":28,"refTime":"2025-02-01T03:00:00:Z","depth":0,"parameterNumber":2,"parameterNumberName":"U-component_of_WINDS"},"data":[0,0,0,0,0,0,0,0,0,0,0,0,0,0,0,0,0,0,0,0,0,0,0,0,0,0,0,0,0,0,0,0,0,0,0,0,0,0,0,0,0,0,0,0,0,0,0,0,0,0,0,0,0,0,0,0,0,0,-0.3933,-0.3933,0,-0.3901,-0.3901,-0.3901,-0.3886,-0.3886,-0.3886,-0.3886,-0.3855,-0.3854,-0.3853,0,0,0,0,0,0,0,0,0,0,0,0,0,-0.3983,-0.3982,-0.3933,-0.3933,-0.3932,-0.3901,-0.3901,-0.39,-0.3886,-0.3886,-0.3886,-0.3886,-0.3855,-0.3854,-0.3853,0,0,0,0,0,0,0,0,0,0,0,0,0,-0.3957,-0.3982,-0.3933,-0.3921,-0.392,-0.3901,-0.3901,-0.39,-0.3886,-0.3886,-0.3886,-0.3886,-0.3856,-0.3854,-0.3853,-0.3845,0,0,-0.3849,-0.3849,0,0,0,0,0,0,0,0,-0.3959,-0.3956,-0.3923,-0.3922,-0.392,-0.3898,-0.3907,-0.3882,-0.3886,-0.3899,-0.3886,-0.3886,-0.3869,-0.3867,-0.3861,-0.3843,-0.3842,-0.3849,-0.3848,-0.3848,-0.3847,0,0,0,0,0,0,0,-0.3961,-0.3957,-0.3921,-0.3923,-0.3921,-0.3918,-0.3915,-0.3902,-0.3884,-0.3898,-0.3897,-0.3893,-0.3868,-0.3862,-0.386,-0.3841,-0.3849,-0.3848,-0.3847,-0.3847,-0.3815,-0.3815,0,0,0,0,0,0,-0.3964,-0.3959,-0.3922,-0.392,-0.394,-0.3917,-0.3913,-0.3905,-0.3884,-0.3881,-0.3893,-0.3892,-0.3864,-0.3862,-0.3859,-0.3848,-0.3848,-0.3847,-0.3846,-0.3815,-0.3815,-0.3815,0,0,0,0,0,0,-0.3965,-0.3961,-0.3923,-0.3939,-0.3934,-0.3916,-0.3907,-0.3904,-0.3898,-0.3881,-0.3878,-0.389,-0.3864,-0.3861,-0.3848,-0.3846,-0.3846,-0.3845,-0.3816,-0.3815,-0.3815,-0.3825,0,0,0,0,0,0,-0.3967,-0.3962,-0.3958,-0.3939,-0.3933,-0.3912,-0.3907,-0.3904,-0.3896,-0.3894,-0.3877,-0.3874,-0.3864,-0.385,-0.3847,-0.3845,-0.3844,-0.3816,-0.3815,-0.3815,-0.3825,-0.3825,-0.3825,0,0,0,0,0,-0.3969,-0.3962,-0.3958,-0.3953,-0.3927,-0.3912,-0.3909,-0.3897,-0.3895,-0.3892,-0.3881,-0.3874,-0.3847,-0.3849,-0.3845,-0.3842,-0.3816,-0.3816,-0.3815,-0.3824,-0.3825,-0.3825,0,0,0,0,0,0,-0.3982,-0.3959,-0.3954,-0.3941,-0.3928,-0.391,-0.3904,-0.3898,-0.3886,-0.3886,-0.3872,-0.3868,-0.3857,-0.3848,-0.3851,-0.3833,-0.3831,-0.383,-0.3839,-0.3839,-0.384,-0.3842,-0.3843,0,0,0,0,0,-0.3983,-0.3972,-0.3953,-0.3943,-0.3937,-0.3922,-0.3915,-0.3907,-0.3893,-0.3888,-0.3876,-0.3864,-0.3853,-0.3846,-0.3834,-0.3823,-0.382,-0.382,-0.382,-0.3821,-0.382,-0.3814,-0.3814,-0.3815,-0.3815,-0.3815,0,0,-0.3985,-0.3972,-0.3966,-0.3945,-0.3935,-0.3924,-0.3918,-0.3906,-0.3898,-0.3887,-0.3874,-0.3865,-0.3851,-0.3839,-0.3833,-0.3832,-0.3819,-0.382,-0.3821,-0.382,-0.3814,-0.3814,-0.3813,-0.3815,-0.3815,-0.3815,0,0,-0.3984,-0.3973,-0.3964,-0.3953,-0.3937,-0.3927,-0.3925,-0.3907,-0.39,-0.3887,-0.3878,-0.3869,-0.385,-0.384,-0.3832,-0.3828,-0.3822,-0.3825,-0.3827,-0.3821,-0.3821,-0.3821,-0.3819,-0.3819,-0.3824,-0.3824,-0.3824,0,-0.399,-0.3973,-0.396,-0.3949,-0.394,-0.3929,-0.392,-0.391,-0.3892,-0.3886,-0.3885,-0.386,-0.385,-0.3836,-0.3835,-0.3829,-0.3826,-0.3827,-0.3822,-0.3822,-0.3821,-0.382,-0.3819,-0.3825,-0.3825,-0.3825,-0.3825,0,-0.398,-0.3968,-0.3963,-0.3944,-0.3935,-0.3926,-0.3912,-0.3904,-0.3897,-0.3888,-0.3875,-0.3862,-0.3848,-0.3844,-0.3837,-0.3829,-0.3828,-0.3825,-0.3822,-0.3822,-0.382,-0.382,-0.3825,-0.3825,-0.3825,-0.3825,0,0,-0.3986,-0.3961,-0.3959,-0.3951,-0.3932,-0.3923,-0.3913,-0.3899,-0.3893,-0.388,-0.3872,-0.3856,-0.3852,-0.3844,-0.3836,-0.3831,-0.3828,-0.3827,-0.3827,-0.3828,-0.3819,-0.3821,-0.3821,-0.3824,-0.3824,-0.3824,-0.382,0,-0.3983,-0.3963,-0.3951,-0.3937,-0.3926,-0.3915,-0.3907,-0.3895,-0.3886,-0.3876,-0.3866,-0.3855,-0.3851,-0.3846,-0.384,-0.383,-0.3826,-0.383,-0.3816,-0.3816,-0.382,-0.382,-0.3823,-0.382,-0.3819,-0.3819,-0.3819,0,-0.3976,-0.3963,-0.3947,-0.393,-0.3925,-0.3918,-0.3904,-0.3894,-0.3881,-0.3875,-0.3865,-0.3857,-0.3847,-0.3845,-0.383,-0.3833,-0.3827,-0.3821,-0.3821,-0.3819,-0.3817,-0.3818,-0.3818,-0.3818,-0.3818,-0.3818,-0.3818,0,-0.3982,-0.3961,-0.3949,-0.3942,-0.3922,-0.3917,-0.3908,-0.3895,-0.3887,-0.3875,-0.387,-0.3857,-0.385,-0.3841,-0.383,-0.3829,-0.3816,-0.3814,-0.3811,-0.3811,-0.3809,-0.3809,-0.3808,-0.3805,-0.3805,-0.3805,-0.3805,0,-0.3979,-0.397,-0.3951,-0.3944,-0.3933,-0.392,-0.3911,-0.3901,-0.389,-0.3881,-0.3871,-0.3863,-0.3849,-0.3839,-0.383,-0.382,-0.3817,-0.3812,-0.381,-0.3813,-0.3813,-0.3808,-0.3808,-0.3805,-0.3805,-0.3805,-0.3805,0,-0.3984,-0.3971,-0.3957,-0.3939,-0.3934,-0.3927,-0.3912,-0.3905,-0.3895,-0.3884,-0.3881,-0.3866,-0.3854,-0.3842,-0.3826,-0.3821,-0.381,-0.3807,-0.3815,-0.3813,-0.3811,-0.3812,-0.3807,-0.3806,-0.3804,-0.3804,-0.3804,0,-0.3983,-0.3975,-0.3956,-0.3949,-0.3941,-0.393,-0.3922,-0.3909,-0.3901,-0.3885,-0.388,-0.3867,-0.3857,-0.3838,-0.3826,-0.3814,-0.3811,-0.381,-0.3809,-0.3812,-0.3811,-0.3811,-0.3811,-0.3811,-0.3811,-0.3811,-0.3811,0,-0.3982,-0.3976,-0.3965,-0.3951,-0.3941,-0.393,-0.3919,-0.3914,-0.3899,-0.389,-0.3878,-0.387,-0.3853,-0.3841,-0.3827,-0.3819,-0.3813,-0.3811,-0.381,-0.3813,-0.3817,-0.3815,-0.3816,-0.3811,-0.3811,-0.3811,-0.3811,-0.3811,-0.3984,-0.3977,-0.3962,-0.395,-0.394,-0.3929,-0.3922,-0.3911,-0.39,-0.3886,-0.3879,-0.3866,-0.3854,-0.3835,-0.3827,-0.3817,-0.3815,-0.3814,-0.3813,-0.3813,-0.3814,-0.3819,-0.3815,-0.3815,-0.3815,-0.3815,-0.3815,0,-0.3983,-0.3973,-0.3962,-0.3946,-0.3936,-0.393,-0.3917,-0.391,-0.3899,-0.3887,-0.3877,-0.3862,-0.385,-0.3838,-0.3825,-0.382,-0.3817,-0.3817,-0.3817,-0.3816,-0.3816,-0.3818,-0.382,-0.382,-0.382,-0.382,-0.382,-0.382,-0.3981,-0.3969,-0.3962,-0.3945,-0.3935,-0.3922,-0.3915,-0.3906,-0.3896,-0.3881,-0.3871,-0.3862,-0.385,-0.3837,-0.3826,-0.3822,-0.3818,-0.382,-0.3815,-0.3816,-0.3815,-0.3815,-0.3817,-0.3819,-0.3819,-0.3816,-0.3816,-0.3816]},{"header":{"parameterUnit":"m.s-1","parameterCategory":1,"la1":30.2991,"la2":30.254,"lo1":-89.0895,"lo2":-89.0444,"dy":0.0017,"dx":0.0017,"nx":28,"ny":28,"refTime":"2025-02-01T03:00:00:Z","depth":0,"parameterNumber":3,"parameterNumberName":"V-component_of_WINDS"},"data":[0,0,0,0,0,0,0,0,0,0,0,0,0,0,0,0,0,0,0,0,0,0,0,0,0,0,0,0,0,0,0,0,0,0,0,0,0,0,0,0,0,0,0,0,0,0,0,0,0,0,0,0,0,0,0,0,0,0,-2.8067,-2.8068,0,-2.8106,-2.8107,-2.8107,-2.8095,-2.8094,-2.8093,-2.8092,-2.813,-2.8132,-2.8134,0,0,0,0,0,0,0,0,0,0,0,0,0,-2.7983,-2.7984,-2.8067,-2.8068,-2.8068,-2.8106,-2.8107,-2.8107,-2.8095,-2.8094,-2.8093,-2.8092,-2.813,-2.8132,-2.8134,0,0,0,0,0,0,0,0,0,0,0,0,0,-2.802,-2.7985,-2.8067,-2.8067,-2.8067,-2.8106,-2.8107,-2.8107,-2.8095,-2.8094,-2.8093,-2.8092,-2.8129,-2.8132,-2.8134,-2.8175,0,0,-2.8142,-2.8143,0,0,0,0,0,0,0,0,-2.8018,-2.8023,-2.8066,-2.8067,-2.8067,-2.8094,-2.809,-2.813,-2.8096,-2.8085,-2.8092,-2.8091,-2.8119,-2.8123,-2.8132,-2.8177,-2.8178,-2.8142,-2.8144,-2.8145,-2.8146,0,0,0,0,0,0,0,-2.8015,-2.8021,-2.8083,-2.8067,-2.8068,-2.8065,-2.8069,-2.8098,-2.8108,-2.8085,-2.8085,-2.8089,-2.8119,-2.813,-2.8133,-2.8179,-2.8142,-2.8145,-2.8146,-2.8147,-2.8261,-2.8263,0,0,0,0,0,0,-2.8013,-2.8019,-2.8081,-2.8084,-2.8039,-2.8067,-2.8072,-2.8087,-2.8108,-2.811,-2.809,-2.8089,-2.8126,-2.813,-2.8135,-2.8186,-2.8145,-2.8148,-2.8149,-2.826,-2.8262,-2.8263,0,0,0,0,0,0,-2.8011,-2.8018,-2.808,-2.8051,-2.8059,-2.807,-2.8087,-2.8088,-2.8099,-2.8112,-2.8113,-2.81,-2.8125,-2.8131,-2.8166,-2.8187,-2.8149,-2.8151,-2.8258,-2.826,-2.8262,-2.8287,0,0,0,0,0,0,-2.8008,-2.8018,-2.8033,-2.8052,-2.8061,-2.811,-2.8088,-2.809,-2.8104,-2.8102,-2.8121,-2.8123,-2.8125,-2.8162,-2.8168,-2.819,-2.8153,-2.8256,-2.8259,-2.8262,-2.8284,-2.829,-2.8294,0,0,0,0,0,-2.8005,-2.8038,-2.8034,-2.8042,-2.808,-2.8112,-2.8117,-2.8119,-2.8106,-2.8122,-2.813,-2.8122,-2.8183,-2.8166,-2.8173,-2.8195,-2.8255,-2.8258,-2.8261,-2.8282,-2.8289,-2.8294,0,0,0,0,0,0,-2.802,-2.804,-2.8036,-2.8075,-2.8092,-2.811,-2.813,-2.8125,-2.8146,-2.8143,-2.8144,-2.8149,-2.8185,-2.8193,-2.8173,-2.8237,-2.8217,-2.8222,-2.823,-2.8237,-2.8242,-2.8239,-2.8156,0,0,0,0,0,-2.8028,-2.8052,-2.8068,-2.8101,-2.811,-2.8118,-2.8132,-2.8133,-2.815,-2.8156,-2.8167,-2.8184,-2.8207,-2.8222,-2.8244,-2.8285,-2.829,-2.8304,-2.8309,-2.8313,-2.8318,-2.8343,-2.835,-2.8274,-2.8274,-2.8274,0,0,-2.8044,-2.8058,-2.8073,-2.8104,-2.8117,-2.8143,-2.8124,-2.8151,-2.817,-2.816,-2.8195,-2.8203,-2.8222,-2.8261,-2.8279,-2.8269,-2.834,-2.8318,-2.8321,-2.8323,-2.8347,-2.8354,-2.8361,-2.8276,-2.8275,-2.8275,0,0,-2.8087,-2.8099,-2.8129,-2.8143,-2.8164,-2.817,-2.8177,-2.8196,-2.8202,-2.8237,-2.823,-2.8253,-2.8292,-2.8306,-2.8319,-2.837,-2.8364,-2.8377,-2.8403,-2.8427,-2.8433,-2.8439,-2.8459,-2.8466,-2.8381,-2.8381,-2.8381,0,-2.8104,-2.8142,-2.8145,-2.8174,-2.8188,-2.8182,-2.8213,-2.8226,-2.8252,-2.8263,-2.8252,-2.8303,-2.8314,-2.8358,-2.8371,-2.838,-2.839,-2.8375,-2.8432,-2.8438,-2.8443,-2.8462,-2.8469,-2.8382,-2.8382,-2.8382,-2.8382,0,-2.8164,-2.8191,-2.8212,-2.824,-2.8257,-2.8286,-2.8294,-2.8311,-2.831,-2.8318,-2.8354,-2.8369,-2.8394,-2.8404,-2.8403,-2.8449,-2.8442,-2.8432,-2.8412,-2.8452,-2.847,-2.8477,-2.8385,-2.8384,-2.8384,-2.8383,0,0,-2.8216,-2.8246,-2.8254,-2.8268,-2.8291,-2.8312,-2.8342,-2.8368,-2.8384,-2.8402,-2.8428,-2.8463,-2.8454,-2.8468,-2.8469,-2.849,-2.8532,-2.8477,-2.8477,-2.8488,-2.8585,-2.8594,-2.8603,-2.8528,-2.8529,-2.853,-2.8584,0,-2.8262,-2.8316,-2.832,-2.8368,-2.8394,-2.8389,-2.8416,-2.8433,-2.8441,-2.8464,-2.8472,-2.8498,-2.8483,-2.8492,-2.8513,-2.8523,-2.8552,-2.8518,-2.8553,-2.8554,-2.855,-2.8612,-2.8621,-2.8671,-2.8591,-2.8592,-2.8593,0,-2.8323,-2.8346,-2.8397,-2.842,-2.843,-2.8454,-2.848,-2.8502,-2.8522,-2.8526,-2.8543,-2.8542,-2.8573,-2.8552,-2.8596,-2.8573,-2.8588,-2.8595,-2.8597,-2.8601,-2.8577,-2.862,-2.8687,-2.8695,-2.8604,-2.8603,-2.8603,0,-2.8359,-2.8402,-2.8439,-2.845,-2.8476,-2.8494,-2.8505,-2.8524,-2.854,-2.8563,-2.8574,-2.8599,-2.8613,-2.8633,-2.8638,-2.8622,-2.8683,-2.8662,-2.8689,-2.8689,-2.8702,-2.8702,-2.8775,-2.8709,-2.8709,-2.8709,-2.8709,0,-2.8411,-2.8443,-2.8456,-2.8479,-2.8515,-2.852,-2.8555,-2.8566,-2.8583,-2.8609,-2.8605,-2.8629,-2.8634,-2.8659,-2.8663,-2.87,-2.8706,-2.8711,-2.8712,-2.8713,-2.8712,-2.8723,-2.872,-2.8711,-2.871,-2.871,-2.871,0,-2.8457,-2.8466,-2.8507,-2.8529,-2.8536,-2.8562,-2.8581,-2.8603,-2.8611,-2.8643,-2.8651,-2.8664,-2.8693,-2.8701,-2.8735,-2.8738,-2.8783,-2.8779,-2.8777,-2.8777,-2.8804,-2.8802,-2.8888,-2.8901,-2.8825,-2.8826,-2.8826,0,-2.849,-2.8515,-2.8541,-2.8558,-2.8571,-2.8599,-2.8616,-2.8622,-2.864,-2.8667,-2.8686,-2.8716,-2.8739,-2.8787,-2.8799,-2.8826,-2.8824,-2.8853,-2.8828,-2.8829,-2.8827,-2.8827,-2.883,-2.8858,-2.8858,-2.8859,-2.886,0,-2.8549,-2.8553,-2.8579,-2.8608,-2.8629,-2.8651,-2.8672,-2.8686,-2.8696,-2.8716,-2.8747,-2.8766,-2.8803,-2.8832,-2.886,-2.8872,-2.8868,-2.8867,-2.8875,-2.8877,-2.8875,-2.8878,-2.8791,-2.8865,-2.8865,-2.8864,-2.8864,-2.8864,-2.8591,-2.8614,-2.8637,-2.8666,-2.8684,-2.8704,-2.8727,-2.8739,-2.8765,-2.8797,-2.8798,-2.8832,-2.8853,-2.8891,-2.8904,-2.8931,-2.8922,-2.8933,-2.8937,-2.894,-2.8943,-2.8869,-2.8936,-2.8936,-2.8935,-2.8935,-2.8935,0,-2.8652,-2.8667,-2.8694,-2.8725,-2.8749,-2.8744,-2.8767,-2.8788,-2.8818,-2.8839,-2.8863,-2.89,-2.8929,-2.8944,-2.8973,-2.8992,-2.8991,-2.9,-2.8999,-2.9003,-2.8948,-2.8939,-2.9,-2.9,-2.9,-2.9,-2.9,-2.9,-2.8686,-2.8726,-2.8733,-2.8782,-2.8796,-2.8831,-2.8845,-2.8864,-2.8881,-2.8923,-2.8948,-2.8958,-2.8977,-2.9008,-2.9035,-2.9039,-2.9051,-2.9061,-2.9064,-2.9013,-2.9006,-2.9,-2.8992,-2.9063,-2.9063,-2.9116,-2.9117,-2.9117]}]]